{"data":{"norad_id":47838,"epoch":"2026-05-25T00:18:34.255008Z","epoch_age_seconds":77165,"freshness":"FRESH","line1":"1 47838U 21018BD  26145.01289647 -.00000978  00000+0 -19757-4 0  9995","line2":"2 47838  53.1593 250.7684 0001270  73.3423 286.7718 15.31692164288377","mean_motion":15.31692164,"eccentricity":0.000127,"inclination_deg":53.1593,"raan_deg":250.7684,"arg_perigee_deg":73.3423,"mean_anomaly_deg":286.7718,"bstar":-1.9757e-5,"rev_number":28837,"period_min":94.013668924143,"perigee_km":469.89354368852,"apogee_km":471.63316437844,"semimajor_km":6848.9003540335,"source":"CELESTRAK","updated_at":"2026-05-25T13:38:16.607530Z"}}